INMARSAT 3-F1           
1 23839U 96020A   19261.49886998  .00000005  00000-0  00000+0 0  9996
2 23839   5.5409  63.6536 0005668 113.5218  64.0382  1.00271167 85916
ATLAS 2A CENTAUR R/B    
1 23840U 96020B   19260.22504108 -.00000179  00000-0 -15509-1 0  9994
2 23840  21.3020 147.6083 6991429 337.4814   3.0910  2.24212322192191